Back to catalog

STARLINK-34195

AliveCommunicationsVLEO
NORAD 64142·PAYLOAD·🇺🇸 United States

Launched May 24, 2025 from Cape Canaveral Space Force Station

Loading…

Next Passes (next 24 hours)

TLE

FreshSource: CelesTrak SupGP

Epoch: Sep 14, 2026, 14:50 UTC

1 64142C 25111V   26257.61854167 -.00012353  00000+0 -44733-3 0  2573
2 64142  43.0002  90.6727 0001346 262.6236 333.8609 15.27591146    14

Track STARLINK-34195 in real time with AllMySat

Download on the App Store